Kezdőlap
METAR-TAF:

METAR-TAF

Repülőterek :

Winona Municipal Airport (Max Conrad Field)

Winona, Minnesota, Amerikai Egyesült Államok

földrajzi szélesség: 44-05N, földrajzi hosszúság: 091-42W, magasság: 200 m

Jelenlegi meteorológiai megfigyelések

A jelentés 33 perccel ezelõtt készült, 07:35 UTC
Szélcsend
Hőmérséklet 25°C
Páratartalom 83%
Légköri nyomás 1011 hPa
Látótávolság: 16.1 km
Derült ég

METAR: KONA 100735Z AUTO 00000KT 10SM CLR 25/22 A2986 RMK AO2 LTG DSNT NW

Idő: 03:08 (08:08 UTC)


TAF: hiányzik

Meteorológiai megfigyelések és előrejelzések több, mint 4000 repülőtéren (METAR és TAF jelentéseket).

A térképen piros és sárga pontok jelzik az elérhető meteorológiai állomásokat.

Mozgassa az egeret a pont fölött, hogy megjelenjen az állomás neve.

Azután kattintson az időjárási megfigyelések és előrejelzések megtekintéséhez.

A térkép megváltoztatása: kattintson a fekete keresztel jelölt zöld gombra ráközelítéshez, a vonallal jelölt zöld gombra távolításhoz, vagy a zöld nyilakra a szomszédos térképek eléréséhez.


METAR-TAF: